カタログに戻る

FENGYUN 1C DEB

運用中SSO
NORAD 31917·DEBRIS·🇨🇳 China

打ち上げ May 10, 1999 から Taiyuan Satellite Launch Center

Loading…

次のパス (今後24時間)

TLE

古いSource: Space-Track

元期: Sep 1, 2026, 17:24 UTC

1 31917U 99025CLU 26244.72553828  .00000541  00000-0  15819-3 0  9991
2 31917  98.3774 235.9616 0186780 224.3355 313.2064 14.38478114  1378

AllMySatでFENGYUN 1C DEBをリアルタイム追跡

Download on the App Store